Time,TemperatureF,DewpointF,PressureIn,WindDirection,WindDirectionDegrees,WindSpeedMPH,WindSpeedGustMPH,Humidity,HourlyPrecipIn,Conditions,Clouds,dailyrainin,SoftwareType,DateUTC
2013-11-28 00:12:00,36.0,24.0,30.33,SW,222,2.0,3.0,61,0.00,,,0.00,,2013-11-28 06:12:00,
2013-11-28 00:22:00,36.0,23.0,30.33,SW,225,3.0,4.0,59,0.00,,,0.00,,2013-11-28 06:22:00,
2013-11-28 00:42:00,35.0,24.0,30.33,SW,229,2.0,4.0,63,0.00,,,0.00,,2013-11-28 06:42:00,
2013-11-28 00:52:00,35.0,24.0,30.33,WSW,237,2.0,5.0,63,0.00,,,0.00,,2013-11-28 06:52:00,
2013-11-28 01:21:00,35.0,23.0,30.33,WSW,238,2.0,6.0,62,0.00,,,0.00,,2013-11-28 07:21:00,
2013-11-28 01:42:00,34.0,23.0,30.32,SW,217,2.0,5.0,63,0.00,,,0.00,,2013-11-28 07:42:00,
2013-11-28 01:52:00,34.0,23.0,30.32,SW,221,2.0,4.0,64,0.00,,,0.00,,2013-11-28 07:52:00,
2013-11-28 02:11:00,34.0,23.0,30.32,SW,235,2.0,5.0,64,0.00,,,0.00,,2013-11-28 08:11:00,
2013-11-28 02:22:00,34.0,23.0,30.33,SW,232,1.0,3.0,65,0.00,,,0.00,,2013-11-28 08:22:00,
2013-11-28 02:42:00,34.0,23.0,30.32,SSW,210,1.0,4.0,65,0.00,,,0.00,,2013-11-28 08:42:00,
2013-11-28 02:53:00,34.0,23.0,30.32,SW,229,2.0,5.0,64,0.00,,,0.00,,2013-11-28 08:53:00,
2013-11-28 03:21:00,34.0,23.0,30.31,SW,222,2.0,5.0,64,0.00,,,0.00,,2013-11-28 09:21:00,
2013-11-28 03:43:00,34.0,23.0,30.32,SW,229,1.0,4.0,65,0.00,,,0.00,,2013-11-28 09:43:00,
2013-11-28 03:53:00,34.0,23.0,30.31,SSW,210,2.0,5.0,65,0.00,,,0.00,,2013-11-28 09:53:00,
2013-11-28 04:23:00,34.0,24.0,30.31,SSW,207,2.0,6.0,66,0.00,,,0.00,,2013-11-28 10:23:00,
2013-11-28 04:43:00,34.0,23.0,30.31,SW,232,1.0,5.0,65,0.00,,,0.00,,2013-11-28 10:43:00,
2013-11-28 04:52:00,34.0,24.0,30.31,South,191,0.0,0.0,67,0.00,,,0.00,,2013-11-28 10:52:00,
2013-11-28 05:11:00,33.0,24.0,30.32,SW,232,0.0,3.0,69,0.00,,,0.00,,2013-11-28 11:11:00,
2013-11-28 05:22:00,33.0,25.0,30.32,SW,232,0.0,0.0,72,0.00,,,0.00,,2013-11-28 11:22:00,
2013-11-28 05:42:00,33.0,25.0,30.32,SW,229,0.0,2.0,71,0.00,,,0.00,,2013-11-28 11:42:00,
2013-11-28 05:52:00,33.0,25.0,30.32,South,186,0.0,0.0,71,0.00,,,0.00,,2013-11-28 11:52:00,
2013-11-28 06:22:00,33.0,25.0,30.33,WSW,238,0.0,0.0,72,0.00,,,0.00,,2013-11-28 12:22:00,
2013-11-28 06:52:00,34.0,25.0,30.33,SSW,212,1.0,3.0,68,0.00,,,0.00,,2013-11-28 12:52:00,
2013-11-28 07:21:00,34.0,24.0,30.34,SW,229,1.0,4.0,67,0.00,,,0.00,,2013-11-28 13:21:00,
2013-11-28 07:42:00,34.0,25.0,30.35,SW,232,1.0,5.0,68,0.00,,,0.00,,2013-11-28 13:42:00,
2013-11-28 07:52:00,34.0,25.0,30.35,SW,224,0.0,3.0,68,0.00,,,0.00,,2013-11-28 13:52:00,
2013-11-28 08:11:00,33.0,26.0,30.36,NNE,33,0.0,0.0,74,0.00,,,0.00,,2013-11-28 14:11:00,
2013-11-28 08:22:00,33.0,26.0,30.35,SSW,207,0.0,0.0,74,0.00,,,0.00,,2013-11-28 14:22:00,
2013-11-28 08:42:00,34.0,26.0,30.36,SSW,193,0.0,2.0,71,0.00,,,0.00,,2013-11-28 14:42:00,
2013-11-28 08:52:00,36.0,26.0,30.36,SW,235,2.0,6.0,68,0.00,,,0.00,,2013-11-28 14:52:00,
2013-11-28 09:22:00,37.0,26.0,30.36,WSW,238,2.0,6.0,64,0.00,,,0.00,,2013-11-28 15:22:00,
2013-11-28 09:43:00,39.0,27.0,30.37,SSE,160,2.0,6.0,61,0.00,,,0.00,,2013-11-28 15:43:00,
2013-11-28 09:54:00,40.0,26.0,30.38,SSW,201,3.0,7.0,57,0.00,,,0.00,,2013-11-28 15:54:00,
2013-11-28 10:13:00,42.0,28.0,30.39,WSW,249,1.0,8.0,57,0.00,,,0.00,,2013-11-28 16:13:00,
2013-11-28 10:23:00,44.0,28.0,30.39,SW,225,0.0,7.0,54,0.00,,,0.00,,2013-11-28 16:23:00,
2013-11-28 10:43:00,45.0,27.0,30.40,SSW,200,1.0,6.0,50,0.00,,,0.00,,2013-11-28 16:43:00,
2013-11-28 10:53:00,45.0,27.0,30.39,SSW,207,1.0,5.0,50,0.00,,,0.00,,2013-11-28 16:53:00,
2013-11-28 11:12:00,47.0,27.0,30.39,WSW,255,1.0,7.0,45,0.00,,,0.00,,2013-11-28 17:12:00,
2013-11-28 11:23:00,48.0,29.0,30.38,SW,225,1.0,4.0,47,0.00,,,0.00,,2013-11-28 17:23:00,
2013-11-28 12:22:00,52.0,30.0,30.36,SSW,207,1.0,4.0,43,0.00,,,0.00,,2013-11-28 18:22:00,
2013-11-28 12:42:00,53.0,31.0,30.35,SSW,212,0.0,4.0,42,0.00,,,0.00,,2013-11-28 18:42:00,
2013-11-28 12:52:00,54.0,29.0,30.34,SW,224,1.0,4.0,38,0.00,,,0.00,,2013-11-28 18:52:00,
2013-11-28 13:22:00,54.0,27.0,30.32,SE,134,0.0,5.0,35,0.00,,,0.00,,2013-11-28 19:22:00,
2013-11-28 13:42:00,55.0,29.0,30.32,NNE,22,0.0,4.0,37,0.00,,,0.00,,2013-11-28 19:42:00,
2013-11-28 13:52:00,57.0,30.0,30.30,SE,145,2.0,6.0,35,0.00,,,0.00,,2013-11-28 19:52:00,
2013-11-28 14:12:00,57.0,30.0,30.30,SSE,159,0.0,2.0,36,0.00,,,0.00,,2013-11-28 20:12:00,
2013-11-28 14:22:00,57.0,28.0,30.29,SSW,199,0.0,4.0,33,0.00,,,0.00,,2013-11-28 20:22:00,
2013-11-28 14:52:00,57.0,30.0,30.29,SW,215,0.0,4.0,35,0.00,,,0.00,,2013-11-28 20:52:00,
2013-11-28 15:11:00,57.0,28.0,30.28,SSW,204,0.0,5.0,33,0.00,,,0.00,,2013-11-28 21:11:00,
2013-11-28 15:21:00,56.0,27.0,30.28,South,170,1.0,4.0,33,0.00,,,0.00,,2013-11-28 21:21:00,
2013-11-28 15:43:00,56.0,27.0,30.28,SW,221,2.0,4.0,33,0.00,,,0.00,,2013-11-28 21:43:00,
2013-11-28 15:53:00,56.0,27.0,30.28,SW,231,1.0,5.0,32,0.00,,,0.00,,2013-11-28 21:53:00,
2013-11-28 16:13:00,55.0,26.0,30.29,South,188,1.0,8.0,33,0.00,,,0.00,,2013-11-28 22:13:00,
2013-11-28 16:23:00,54.0,27.0,30.29,South,188,1.0,5.0,35,0.00,,,0.00,,2013-11-28 22:23:00,
2013-11-28 16:42:00,52.0,28.0,30.29,SSW,197,0.0,5.0,39,0.00,,,0.00,,2013-11-28 22:42:00,
2013-11-28 16:53:00,51.0,29.0,30.29,SSE,162,0.0,3.0,42,0.00,,,0.00,,2013-11-28 22:53:00,
2013-11-28 17:12:00,50.0,27.0,30.30,South,190,1.0,4.0,41,0.00,,,0.00,,2013-11-28 23:12:00,
2013-11-28 17:21:00,49.0,27.0,30.30,SSE,148,1.0,4.0,43,0.00,,,0.00,,2013-11-28 23:21:00,
2013-11-28 17:42:00,49.0,29.0,30.30,SW,225,0.0,4.0,46,0.00,,,0.00,,2013-11-28 23:42:00,
2013-11-28 17:52:00,47.0,29.0,30.30,South,169,0.0,2.0,49,0.00,,,0.00,,2013-11-28 23:52:00,
2013-11-28 18:11:00,45.0,28.0,30.31,SW,216,1.0,2.0,52,0.00,,,0.00,,2013-11-29 00:11:00,
2013-11-28 18:21:00,44.0,28.0,30.31,SW,229,1.0,2.0,54,0.00,,,0.00,,2013-11-29 00:21:00,
2013-11-28 18:52:00,43.0,28.0,30.32,SW,215,0.0,2.0,56,0.00,,,0.00,,2013-11-29 00:52:00,
2013-11-28 19:21:00,41.0,27.0,30.34,SSW,210,0.0,1.0,58,0.00,,,0.00,,2013-11-29 01:21:00,
2013-11-28 19:42:00,40.0,27.0,30.34,SW,217,1.0,2.0,59,0.00,,,0.00,,2013-11-29 01:42:00,
2013-11-28 19:52:00,40.0,26.0,30.34,SW,222,1.0,2.0,58,0.00,,,0.00,,2013-11-29 01:52:00,
2013-11-28 20:12:00,41.0,26.0,30.35,SW,219,1.0,4.0,55,0.00,,,0.00,,2013-11-29 02:12:00,
2013-11-28 20:21:00,41.0,26.0,30.35,SW,221,1.0,3.0,55,0.00,,,0.00,,2013-11-29 02:21:00,
2013-11-28 20:42:00,42.0,26.0,30.35,SSW,201,1.0,5.0,53,0.00,,,0.00,,2013-11-29 02:42:00,
2013-11-28 20:52:00,42.0,26.0,30.36,SW,225,2.0,4.0,52,0.00,,,0.00,,2013-11-29 02:52:00,
2013-11-28 21:21:00,42.0,25.0,30.36,WSW,250,2.0,4.0,50,0.00,,,0.00,,2013-11-29 03:21:00,
2013-11-28 21:53:00,41.0,25.0,30.37,SW,219,0.0,2.0,52,0.00,,,0.00,,2013-11-29 03:53:00,
2013-11-28 22:43:00,40.0,25.0,30.38,SW,222,1.0,3.0,55,0.00,,,0.00,,2013-11-29 04:43:00,